Simultaneous Nadir Overpasses (SNOs) Predictions

Prediction of SNOs between AQUA and GOES-15 Satellite Orbit:

Table of predicted SNOs for the next 14.0 days since TLE Epoch: 9/8/2017
Index Date Time (AQUA) AQUA Lat,Lon GOES-15 Lat,Lon Distance(km) Time Diff (sec)
1 09/08/2017 22:22:26 0.35,-131.84 -0.33,-135.07 367.28 80
2 09/09/2017 10:43:41 0.73,-137.00 0.33,-135.12 213.58 80
3 09/11/2017 10:31:29 0.12,-134.04 0.33,-135.17 128.79 80
4 09/11/2017 22:52:53 -1.22,-139.23 -0.32,-135.14 464.99 80
5 09/13/2017 10:19:18 -0.56,-131.09 0.33,-135.22 470.26 80
6 09/13/2017 22:40:42 -0.54,-136.28 -0.32,-135.19 123.48 80
7 09/15/2017 22:28:30 0.09,-133.32 -0.31,-135.23 217.43 80
8 09/16/2017 10:49:46 0.97,-138.48 0.30,-135.29 362.37 80
9 09/18/2017 10:37:34 0.33,-135.53 0.30,-135.33 21.84 80
10 09/20/2017 10:25:22 -0.32,-132.57 0.30,-135.37 318.67 80
11 09/20/2017 22:46:45 -0.84,-137.75 -0.29,-135.32 277.06 80




NCC Satellite Simultaneous Nadir Overpasses (SNOs) Prediction Service
